Погода в Эссойле

Россия / Республика Карелия     61°50′49″N   33°12′40″E
темп.,
°C
ветер,
м/с
пор.,
м/с
влажн.,
%
обл.,
%
осадки,
мм/ч
давл.,
гПа
погр.,
м
29 июля, чт
чт2900:00+16зюз2693100 0.2 1006170
03:00+16ю1196100 0.7 100415
06:00+16ююв1396100 0.0 1003101
09:00+18ю138892 0.4 1002427
12:00+21юз3576100 0.4 1000840
15:00+19юз4987100 1.7 999763
18:00+21зюз4860100 0.0 9981137
21:00+17зюз1285100 0.2 99854
30 июля, пт
пт3000:00+15юз279724 0.6 998188
03:00+14юз299688 0.7 998225
06:00+15юз3993100 0.0 998318
09:00+19зюз4771100 0.0 998768
12:00+22юз5847100 0.0 9981756
15:00+22ююз5842100 0.0 9982088
18:00+15зюз4986100 0.5 998439
21:00+14ююз288942 0.8 997271
31 июля, сб
сб3100:00+14ююв399197 0.1 996231
03:00+12ю3109527 0.3 995254
06:00+12ю31092100 0.0 994414
09:00+13юв2694100 0.4 993509
12:00+16ююв128269 0.4 993688
15:00+20сз245890 0.8 9951463
18:00+21зсз455096 0.1 9971541
21:00+17зюз397498 0.1 999354
1 августа, вс
вс100:00+14юз249198 0.0 100079
03:00+15ююз268936 0.1 1000161
06:00+14ююз388987 0.0 1001245
09:00+19ююз3670100 0.1 1000626
12:00+22ююз4756100 1.1 9991488
15:00+19ююз588714 3.3 998816
18:00+18ююз4108883 2.1 998933
21:00+16ююз5128828 2.4 998683
2 августа, пн
пн200:00+15юз51294100 0.3 998761
03:00+15юз51092100 0.4 998758
06:00+15юз41092100 0.1 1000790
09:00+15юз4890100 0.3 1001865
12:00+16юз4986100 0.2 1002675
15:00+18юз4771100 0.3 1002872
18:00+19юз366976 0.4 10021064
21:00+16ююз1177100 0.6 100111